Overview Statistics Trail Chart Weather Telemetry Raw packets
 

This is the latest recevied weather packets stored in our database for station/object GBTWP-2. If no packets are shown the sender has not sent any weather packets the latest 10 day(s).

<< 78 79 80 81 82 83 84 >>
Time Temp. Humidity Pressure Rain* Wind** Luminosity Snow
1788115621 22.22° C 86% 1020 hPa 0 mm - 151 W/m² -
1788115320 22.22° C 88% 1019.7 hPa 0 mm - 167 W/m² -
1788115021 21.67° C 88% 1019.8 hPa 0 mm - 229 W/m² -
1788114718 21.11° C 89% 1019.9 hPa 0 mm - 186 W/m² -
1788114420 21.11° C 90% 1020 hPa 0 mm - 163 W/m² -
1788114120 21.11° C 90% 1019.9 hPa 0 mm - 120 W/m² -
1788113820 20.56° C 91% 1020.1 hPa 0 mm - 118 W/m² -
1788113520 20.56° C 91% 1020 hPa 0 mm - 137 W/m² -
1788113220 20.56° C 92% 1019.9 hPa 0 mm - 147 W/m² -
1788112920 20.56° C 93% 1020.1 hPa 0 mm - 147 W/m² -
1788112621 20.56° C 94% 1020.2 hPa 0 mm - 159 W/m² -
1788112332 20.56° C 94% 1020.1 hPa 0 mm - 137 W/m² -
1788112019 20° C 95% 1020.1 hPa 0 mm - 156 W/m² -
1788111717 20° C 95% 1020 hPa 0 mm - 144 W/m² -
1788111420 20° C 95% 1019.9 hPa 0 mm - 179 W/m² -
1788111120 19.44° C 96% 1019.9 hPa 0 mm - 118 W/m² -
1788110820 19.44° C 96% 1020 hPa 0 mm - 120 W/m² -
1788110521 19.44° C 96% 1020 hPa 0 mm - 112 W/m² -
1788110218 19.44° C 96% 1020.1 hPa 0 mm - 93 W/m² -
1788109920 19.44° C 96% 1020 hPa 0 mm - 80 W/m² -
1788109620 19.44° C 97% 1019.8 hPa 0 mm - 74 W/m² -
1788109320 19.44° C 97% 1020 hPa 0 mm - 124 W/m² -
1788109020 19.44° C 97% 1019.9 hPa 0 mm - 131 W/m² -
1788108717 19.44° C 97% 1020.1 hPa 0 mm - 158 W/m² -
1788108420 18.89° C 97% 1020.3 hPa 0 mm - 127 W/m² -

* Rain latest hour (hover to see other rain measurements)
** Current wind speed in m/s (hover to see current wind gust speed)